GW0759 Weather Reports


Display with metric or nautical units.
time (UTC)temp
F
wind
direction
speed
MPH
gust
MPH
rain 1hr
in
rain 24hr
in
rain mn
in
humidity
%
barometer
mb
20260901164608 94 105 4.0 10.0 0.00 0.00 0.00 46 1015.9
20260901163059 93 82 2.0 11.0 0.00 0.00 0.00 50 1016.1
20260901161613 93 134 3.0 8.0 0.00 0.00 0.00 47 1016.1
20260901160116 93 146 4.0 8.0 0.00 0.00 0.00 48 1016.1
20260901154606 91 123 3.0 10.0 0.00 0.00 0.00 52 1016.1
20260901153110 89 202 4.0 10.0 0.00 0.00 0.00 53 1016.1
20260901151604 89 256 2.0 8.0 0.00 0.00 0.00 55 1015.9
20260901150107 87 122 2.0 7.0 0.00 0.00 0.00 58 1016.0
20260901144556 87 64 2.0 6.0 0.00 0.00 0.00 59 1016.0
20260901143119 86 129 3.0 7.0 0.00 0.00 0.00 61 1016.1
20260901141554 84 124 2.0 6.0 0.00 0.00 0.00 66 1016.1
20260901140059 82 134 2.0 7.0 0.00 0.00 0.00 70 1016.1
20260901134557 81 71 2.0 5.0 0.00 0.00 0.00 72 1016.1
20260901133054 81 132 2.0 7.0 0.00 0.00 0.00 72 1016.1
20260901131601 80 149 3.0 7.0 0.00 0.00 0.00 73 1016.0
20260901130055 79 115 2.0 5.0 0.00 0.00 0.00 74 1015.9
20260901124605 78 159 1.0 4.0 0.00 0.00 0.00 75 1015.6
20260901123112 76 159 1.0 2.0 0.00 0.00 0.00 77 1015.5
20260901121601 75 0 0.0 2.0 0.00 0.00 0.00 78 1015.2
20260901120104 75 159 0.0 1.0 0.00 0.00 0.00 77 1015.0
20260901114559 75 0 0.0 1.0 0.00 0.00 0.00 77 1014.9
20260901113105 76 159 0.0 2.0 0.00 0.00 0.00 76 1015.0
20260901111608 76 0 0.0 2.0 0.00 0.00 0.00 75 1014.9
20260901110057 77 0 0.0 2.0 0.00 0.00 0.00 74 1014.7
20260901104604 77 0 0.0 0.0 0.00 0.00 0.00 74 1014.8
20260901103102 77 0 0.0 2.0 0.00 0.00 0.00 73 1014.7
20260901101550 78 0 0.0 4.0 0.00 0.00 0.00 72 1014.9
20260901100057 78 0 0.0 2.0 0.00 0.00 0.00 71 1014.7
20260901094550 79 0 0.0 2.0 0.00 0.00 0.00 70 1014.9
20260901093103 79 0 0.0 2.0 0.00 0.00 0.00 70 1014.9
20260901091555 79 0 0.0 4.0 0.00 0.00 0.00 69 1014.9
20260901090056 79 0 0.0 2.0 0.00 0.00 0.00 68 1014.9
20260901084602 79 0 0.0 4.0 0.00 0.00 0.00 67 1015.0
20260901083058 80 159 1.0 5.0 0.00 0.00 0.00 65 1014.9
20260901081557 80 129 2.0 5.0 0.00 0.00 0.00 64 1014.9
20260901080107 81 164 1.0 5.0 0.00 0.00 0.00 63 1014.8
20260901074605 81 212 2.0 5.0 0.00 0.00 0.00 62 1014.7
20260901073105 81 184 1.0 7.0 0.00 0.00 0.00 61 1014.8
20260901071604 82 148 2.0 8.0 0.00 0.00 0.00 60 1014.6
20260901064604 81 136 2.0 5.0 0.00 0.00 0.00 57 1014.4
20260901063109 82 124 2.0 5.0 0.00 0.00 0.00 54 1014.3
20260901061622 82 113 3.0 7.0 0.00 0.00 0.00 54 1014.1
20260901060103 81 115 2.0 6.0 0.00 0.00 0.00 53 1014.0
20260901054556 78 132 0.0 2.0 0.00 0.00 0.00 57 1013.7
20260901053109 77 0 0.0 0.0 0.00 0.00 0.00 58 1013.6
20260901051603 79 0 0.0 2.0 0.00 0.00 0.00 56 1013.5
20260901044601 81 113 1.0 4.0 0.00 0.00 0.00 53 1013.5
20260901043059 82 110 2.0 4.0 0.00 0.00 0.00 50 1013.5
20260901041551 83 107 2.0 6.0 0.00 0.00 0.00 49 1013.5
20260901034556 84 113 2.0 3.0 0.00 0.00 0.00 48 1013.5
20260901033055 84 113 1.0 5.0 0.00 0.00 0.00 48 1013.5
20260901031559 84 120 0.0 2.0 0.00 0.00 0.00 49 1013.5
20260901024556 85 164 0.0 4.0 0.00 0.00 0.00 48 1013.2
20260901023056 85 164 1.0 2.0 0.00 0.00 0.00 47 1013.0
20260901021556 86 164 1.0 3.0 0.00 0.00 0.00 46 1013.0
20260901020108 86 134 0.0 3.0 0.00 0.00 0.00 46 1012.8
20260901014604 88 134 1.0 3.0 0.00 0.00 0.00 44 1012.6
20260901013102 88 134 0.0 2.0 0.00 0.00 0.00 44 1012.6
20260901011552 89 134 0.0 3.0 0.00 0.00 0.00 42 1012.5
20260901010101 91 124 1.0 4.0 0.00 0.00 0.00 39 1012.3
20260901004609 94 0 1.0 5.0 0.00 0.00 0.00 36 1012.2
20260901003100 96 108 2.0 7.0 0.00 0.00 0.00 34 1012.1
20260901001605 98 120 3.0 8.0 0.00 0.00 0.00 32 1012.2
20260901000114 99 112 3.0 11.0 0.00 0.00 0.00 32 1012.1
20260831234604 99 116 2.0 10.0 0.00 0.00 0.00 31 1012.1
20260831233057 99 134 4.0 11.0 0.00 0.00 0.00 30 1012.2
20260831231609 101 91 3.0 10.0 0.00 0.00 0.00 29 1012.2
20260831224556 100 113 5.0 12.0 0.00 0.00 0.00 30 1012.4
20260831223109 103 126 6.0 13.0 0.00 0.00 0.00 27 1012.5
20260831221556 103 89 5.0 14.0 0.00 0.00 0.00 28 1012.3
20260831220056 102 173 5.0 10.0 0.00 0.00 0.00 28 1012.5
20260831214600 102 115 3.0 12.0 0.00 0.00 0.00 28 1012.7
20260831213109 101 77 2.0 12.0 0.00 0.00 0.00 29 1012.9
20260831211600 102 111 4.0 16.0 0.00 0.00 0.00 29 1013.0
20260831210055 103 157 6.0 12.0 0.00 0.00 0.00 28 1013.1
20260831204555 100 161 4.0 14.0 0.00 0.00 0.00 29 1013.3
20260831203111 103 196 6.0 13.0 0.00 0.00 0.00 29 1013.5
20260831201559 102 167 5.0 13.0 0.00 0.00 0.00 30 1013.8
20260831200057 99 137 5.0 14.0 0.00 0.00 0.00 32 1013.9
20260831194632 100 114 5.0 14.0 0.00 0.00 0.00 30 1014.1
20260831193056 103 123 5.0 13.0 0.00 0.00 0.00 32 1014.2
20260831191559 101 76 8.0 15.0 0.00 0.00 0.00 32 1014.4
20260831190112 98 77 4.0 11.0 0.00 0.00 0.00 36 1014.5
20260831184607 99 134 7.0 13.0 0.00 0.00 0.00 34 1014.7
20260831183059 98 116 6.0 13.0 0.00 0.00 0.00 35 1014.9
20260831181602 99 136 5.0 12.0 0.00 0.00 0.00 36 1015.0
20260831180109 97 173 5.0 13.0 0.00 0.00 0.00 38 1015.4
20260831174556 97 215 7.0 14.0 0.00 0.00 0.00 37 1015.6
20260831173059 96 145 3.0 11.0 0.00 0.00 0.00 38 1015.9
20260831171601 97 92 5.0 14.0 0.00 0.00 0.00 39 1016.0
20260831170058 94 146 5.0 12.0 0.00 0.00 0.00 41 1016.1